Terug naar catalogus

COSMOS 1823 DEB

ActiefLEO
NORAD 18801·DEBRIS·🇷🇺 Russia

Gelanceerd Feb 20, 1987 vanaf Plesetsk Cosmodrome

Loading…

Volgende Passages (komende 24 uur)

TLE

VersSource: Space-Track

Epoch: Sep 14, 2026, 05:46 UTC

1 18801U 87020AM  26257.24087339  .00000313  00000-0  15096-2 0  9993
2 18801  73.1306 353.2135 0129989 181.6539 205.6848 12.75569818798956

Volg COSMOS 1823 DEB in realtime met AllMySat

Download on the App Store